Location: Zapote
(9.9191°N, 84.0597°W)
Time: 11:57:06
(UTC-06:00)

Courier 1B Rocket - Pass Details

Date: 13 March 2021
Orbit: 920 x 1202 km, 28.2° (Epoch: 12 April)

Event Time Altitude Azimuth Distance (km) Brightness Sun altitude
Rises 18:46:37 0° 280° (W) 3,964 9.9 -15.5°
Reaches altitude 10° 18:49:43 10° 270° (W) 3,041 9.0 -16.2°
Maximum altitude 18:56:13 31° 210° (SSW) 1,941 6.8 -17.8°
Drops below altitude 10° 19:02:55 10° 151° (SSE) 3,127 7.4 -19.5°
Enters shadow 19:04:06 - 147° (SSE) 3,469 7.6 -19.8°
